, OK

(GMT )
Enid

Weather History for KWDG - December, 2012

Change the Weather History Date:

Friday, December 7, 2012

  Actual Average Record
Temperature  
Mean Temperature 44 °F -  
Max Temperature 50 °F 48 °F 64 °F (2008)
Min Temperature 37 °F 32 °F 6 °F (2013)
Degree Days  
Heating Degree Days 22    
Moisture  
Dew Point 41 °F    
Average Humidity 84    
Maximum Humidity 100    
Minimum Humidity 71    
Precipitation  
Precipitation 0.00 in - - ()
Sea Level Pressure  
Sea Level Pressure 29.87 in    
Wind  
Wind Speed 10 mph (NNW)    
Max Wind Speed 15 mph    
Max Gust Speed -    
Visibility 8 miles    
Events      
Averages and records for this station are not official NWS values.
T = Trace of Precipitation, MM = Missing Value Source: NWS Daily Summary

Daily Weather History Graph

Daily Weather History Graph

Search for Another Location

Airport or City:

Trip Planner

Search our weather history database for the weather conditions in past years. The results will help you decide how hot, cold, wet, or windy it might be!

Date:

Astronomy

Dec. 07, 2012 Rise Set
Actual Time 7:29 AM CST 5:15 PM CST
Civil Twilight 7:01 AM CST 5:44 PM CST
Nautical Twilight 6:29 AM CST 6:16 PM CST
Astronomical Twilight 5:57 AM CST 6:47 PM CST
Moon 12:59 AM CST (12/7) 1:05 PM CST (12/7)
Length of Visible Light 10h 43m
Length of Day
9h 45m
Last Quarter, 38% of the Moon is Illuminated
Dec 7
Last Quarter
Dec 13
New
Dec 19
First Quarter
Dec 28
Full
Jan 4
Last Quarter

Hourly Weather History & Observations

Time (CST) Temp. Windchill Dew Point Humidity Pressure Visibility Wind Dir Wind Speed Gust Speed Precip Events Conditions
12:15 AM 46.4 °F 40.1 °F 42.8 °F 87% 29.85 in 7.0 mi North 15.0 mph - N/A   Clear
12:35 AM 46.4 °F 40.4 °F 42.8 °F 87% 29.85 in 7.0 mi NNW 13.8 mph - N/A   Clear
12:55 AM 46.4 °F 40.4 °F 42.8 °F 87% 29.85 in 7.0 mi North 13.8 mph - N/A   Clear
1:15 AM 46.4 °F 40.7 °F 42.8 °F 87% 29.85 in 7.0 mi North 12.7 mph - N/A   Clear
1:35 AM 44.6 °F 38.8 °F 42.8 °F 93% 29.85 in 10.0 mi North 11.5 mph - N/A   Clear
2:15 AM 44.6 °F 39.7 °F 41.0 °F 87% 29.86 in 10.0 mi North 9.2 mph - N/A   Scattered Clouds
2:35 AM 44.6 °F 40.2 °F 41.0 °F 87% 29.86 in 10.0 mi North 8.1 mph - N/A   Mostly Cloudy
2:55 AM 44.6 °F 39.7 °F 42.8 °F 93% 29.86 in 10.0 mi North 9.2 mph - N/A   Overcast
3:15 AM 44.6 °F 39.7 °F 41.0 °F 87% 29.85 in 10.0 mi North 9.2 mph - N/A   Mostly Cloudy
3:35 AM 42.8 °F 37.0 °F 39.2 °F 87% 29.85 in 10.0 mi NNW 10.4 mph - N/A   Scattered Clouds
3:55 AM 42.8 °F 37.0 °F 37.4 °F 81% 29.85 in 10.0 mi NNW 10.4 mph - N/A   Clear
4:15 AM 41.0 °F 34.3 °F 37.4 °F 87% 29.84 in 10.0 mi NNW 11.5 mph - N/A   Clear
4:35 AM 41.0 °F 34.7 °F 37.4 °F 87% 29.84 in 10.0 mi NNW 10.4 mph - N/A   Clear
4:55 AM 41.0 °F 34.7 °F 35.6 °F 81% 29.84 in 10.0 mi NNW 10.4 mph - N/A   Scattered Clouds
6:20 AM 44.6 °F 39.2 °F 39.2 °F 81% 29.85 in 10.0 mi North 10.4 mph - N/A   Overcast
7:50 AM 46.4 °F 42.4 °F 39.2 °F 76% 29.86 in 7.0 mi North 8.1 mph - N/A   Overcast
9:55 AM 46.4 °F 40.4 °F 39.2 °F 76% 29.87 in 7.0 mi North 13.8 mph - N/A   Overcast
10:50 AM 48.2 °F - 39.2 °F 71% 29.86 in 7.0 mi North 10.4 mph - N/A   Overcast
11:50 AM 48.2 °F - 41.0 °F 76% 29.85 in 7.0 mi NW 8.1 mph - N/A   Overcast
12:50 PM 48.2 °F - 41.0 °F 76% 29.83 in 7.0 mi NNW 8.1 mph - N/A   Overcast
1:50 PM 50.0 °F - 41.0 °F 71% 29.82 in 7.0 mi NNW 6.9 mph - N/A   Overcast
2:50 PM 50.0 °F - 41.0 °F 71% 29.82 in 7.0 mi NW 6.9 mph - N/A   Overcast
4:50 PM 48.2 °F - 42.8 °F 82% 29.84 in 7.0 mi NW 6.9 mph - N/A   Overcast
5:50 PM 48.2 °F - 42.8 °F 82% 29.85 in 7.0 mi North 4.6 mph - N/A   Overcast
7:50 PM 48.2 °F - 44.6 °F 87% 29.88 in 10.0 mi North 4.6 mph - N/A   Overcast
8:15 PM 48.2 °F - 42.8 °F 82% 29.89 in 10.0 mi North 4.6 mph - N/A   Overcast
8:35 PM 48.2 °F - 42.8 °F 82% 29.90 in 7.0 mi North 6.9 mph - N/A   Overcast
8:50 PM 48.2 °F - 44.6 °F 87% 29.91 in 7.0 mi NNW 5.8 mph - N/A   Overcast
8:55 PM 48.2 °F - 44.6 °F 87% 29.91 in 7.0 mi North 5.8 mph - N/A   Overcast
9:15 PM 48.2 °F - 44.6 °F 87% 29.92 in 7.0 mi NNE 3.5 mph - N/A   Overcast
9:35 PM 48.2 °F - 44.6 °F 87% 29.91 in 7.0 mi North 3.5 mph - N/A   Overcast
9:55 PM 46.4 °F 44.3 °F 42.8 °F 87% 29.92 in 7.0 mi North 4.6 mph - N/A   Mostly Cloudy
10:35 PM 42.8 °F 41.1 °F 39.2 °F 87% 29.92 in 5.0 mi NNW 3.5 mph - N/A   Clear
10:55 PM 41.0 °F 37.1 °F 37.4 °F 87% 29.92 in 5.0 mi NNW 5.8 mph - N/A   Clear
11:15 PM 39.2 °F 37.0 °F 37.4 °F 93% 29.91 in 4.0 mi NNW 3.5 mph - N/A   Clear
11:35 PM 37.4 °F 32.8 °F 35.6 °F 93% 29.92 in 4.0 mi NNW 5.8 mph - N/A   Scattered Clouds
11:55 PM 37.4 °F 32.8 °F 37.4 °F 100% 29.92 in 5.0 mi North 5.8 mph - N/A   Mostly Cloudy